[Date Prev][Date Next][Thread Prev][Thread Next] - [Date Index][Thread Index][Author Index]

2 Line ISS Keps 3-5



ISS
1 25544U 98067A   06064.01198568  .00015291  00000-0  10886-3 0  4667
2 25544 051.6432 003.3805 0008363 327.6538 129.5297 15.74045485416746
----
Via the sarex mailing list at AMSAT.ORG courtesy of AMSAT-NA.
To unsubscribe, send "unsubscribe sarex" to Majordomo@amsat.org



AMSAT Top AMSAT Home